Rochester, NH

9:39 AM EDT on April 28, 2017 (GMT -0400)
Skyhaven

Weather History for KDAW - September, 2013

Change the Weather History Date:

Wednesday, September 25, 2013

  Actual Average (KPSM) Record (KPSM)
Temperature  
Mean Temperature 50 °F -  
Max Temperature 62 °F 66 °F 86 °F (2007)
Min Temperature 39 °F 47 °F 28 °F (1989)
Degree Days  
Heating Degree Days 14    
Moisture  
Dew Point 44 °F    
Average Humidity 75    
Maximum Humidity 93    
Minimum Humidity 53    
Precipitation  
Precipitation 0.00 in - - ()
Sea Level Pressure  
Sea Level Pressure 29.91 in    
Wind  
Wind Speed 2 mph (North)    
Max Wind Speed 7 mph    
Max Gust Speed 118 mph    
Visibility 10 miles    
Events      
Averages and records for this station are not official NWS values.
T = Trace of Precipitation, MM = Missing Value Source: NWS Daily Summary

Daily Weather History Graph

Daily Weather History Graph

Search for Another Location

Airport or City:

Trip Planner

Search our weather history database for the weather conditions in past years. The results will help you decide how hot, cold, wet, or windy it might be!

Date:

Astronomy

Sep. 25, 2013 Rise Set
Actual Time 6:34 AM EDT 6:35 PM EDT
Civil Twilight 6:06 AM EDT 7:03 PM EDT
Nautical Twilight 5:32 AM EDT 7:36 PM EDT
Astronomical Twilight 4:58 AM EDT 8:10 PM EDT
Moon 10:30 PM EDT (9/25) 12:46 PM EDT (9/25)
Length of Visible Light 12h 57m
Length of Day
12h 00m
Waning Gibbous, 64% of the Moon is Illuminated
Sep 25
Waning Gibbous
Sep 26
Last Quarter
Oct 4
New
Oct 11
First Quarter
Oct 18
Full

Hourly Weather History & Observations

Time (EDT) Temp. Dew Point Humidity Pressure Visibility Wind Dir Wind Speed Gust Speed Precip Events Conditions
12:51 AM 46.9 °F 44.1 °F 90% 29.88 in 10.0 mi Calm Calm - N/A   Scattered Clouds
1:51 AM 46.0 °F 43.0 °F 89% 29.88 in 10.0 mi Calm Calm - N/A   Clear
2:51 AM 45.0 °F 42.1 °F 90% 29.87 in 10.0 mi Calm Calm - N/A   Clear
3:51 AM 43.0 °F 41.0 °F 93% 29.87 in 10.0 mi Calm Calm - N/A   Clear
4:51 AM 43.0 °F 41.0 °F 93% 29.87 in 10.0 mi Calm Calm - N/A   Clear
5:51 AM 39.9 °F 37.9 °F 93% 29.86 in 10.0 mi Calm Calm - N/A   Clear
6:51 AM 39.0 °F 37.0 °F 93% 29.88 in 10.0 mi Calm Calm - N/A   Clear
7:51 AM 46.0 °F 42.1 °F 86% 29.89 in 10.0 mi Calm Calm - N/A   Clear
8:51 AM 53.1 °F 45.0 °F 74% 29.90 in 10.0 mi North 5.8 mph - N/A   Clear
9:32 AM 57.2 °F 44.6 °F 63% 29.91 in 10.0 mi North 4.6 mph 118.5 mph N/A   Squalls
9:51 AM 57.9 °F 45.0 °F 62% 29.91 in 10.0 mi North 6.9 mph - N/A   Mostly Cloudy
10:51 AM 60.1 °F 44.1 °F 55% 29.91 in 10.0 mi NNW 5.8 mph - N/A   Overcast
11:51 AM 60.1 °F 43.0 °F 53% 29.91 in 10.0 mi South 3.5 mph - N/A   Overcast
12:51 PM 62.1 °F 46.0 °F 56% 29.89 in 10.0 mi Calm Calm - N/A   Overcast
1:51 PM 60.1 °F 46.9 °F 62% 29.89 in 10.0 mi East 3.5 mph - N/A   Overcast
2:51 PM 60.1 °F 46.9 °F 62% 29.89 in 10.0 mi NE 4.6 mph - N/A   Overcast
3:51 PM 60.1 °F 48.0 °F 64% 29.89 in 10.0 mi North 5.8 mph - N/A   Overcast
4:51 PM 60.1 °F 46.9 °F 62% 29.90 in 10.0 mi North 5.8 mph - N/A   Overcast
5:51 PM 57.9 °F 46.9 °F 67% 29.91 in 10.0 mi North 3.5 mph - N/A   Overcast
6:51 PM 57.0 °F 46.9 °F 69% 29.93 in 10.0 mi NNW 4.6 mph - N/A   Overcast
7:51 PM 55.0 °F 46.9 °F 74% 29.94 in 10.0 mi NW 4.6 mph - N/A   Overcast
8:51 PM 55.0 °F 46.9 °F 74% 29.96 in 10.0 mi NNW 6.9 mph - N/A   Overcast
9:51 PM 52.0 °F 46.0 °F 80% 29.97 in 10.0 mi NNW 3.5 mph - N/A   Overcast
10:51 PM 51.1 °F 46.0 °F 83% 29.98 in 10.0 mi Calm Calm - N/A   Overcast
11:51 PM 51.1 °F 45.0 °F 80% 29.99 in 10.0 mi NNW 4.6 mph - N/A   Overcast